• In Hungary
  • List of Countries
  • For 7 days
  • Water Temperature
  • Satellite Maps
  • Weather Map
  • News
  • Weather Widgets
  • user-avatar
    Login

    Hourly Weather Shlina

    Today, 22 September, Saturday

    Time Temperature Precipitation Wind Pressure Humidity
    00:00 +17°C° 0 mm 3 mps 743 mmHg 92%
    01:00 +17°C° 0 mm 3 mps 743 mmHg 93%
    02:00 +16°C° 0 mm 2 mps 743 mmHg 94%
    03:00 +16°C° 0 mm 3 mps 742 mmHg 93%
    04:00 +16°C° 0 mm 3 mps 742 mmHg 91%
    05:00 +16°C° 0 mm 3 mps 742 mmHg 89%
    06:00 +17°C° 0 mm 4 mps 741 mmHg 83%
    07:00 +18°C° 0 mm 4 mps 741 mmHg 78%
    08:00 +19°C° 0 mm 5 mps 740 mmHg 71%
    09:00 +21°C° 0 mm 6 mps 740 mmHg 64%
    10:00 +22°C° 0 mm 6 mps 739 mmHg 57%
    11:00 +23°C° 0 mm 6 mps 739 mmHg 50%
    12:00 +24°C° 0 mm 6 mps 739 mmHg 48%
    13:00 +24°C° 0 mm 6 mps 738 mmHg 46%
    14:00 +24°C° 0 mm 6 mps 738 mmHg 44%
    15:00 +22°C° 0.2 mm 5 mps 738 mmHg 55%
    16:00 +20°C° 0.2 mm 4 mps 738 mmHg 65%
    17:00 +18°C° 0.2 mm 4 mps 738 mmHg 75%
    18:00 +17°C° 0.4 mm 4 mps 738 mmHg 80%
    19:00 +14°C° 0.4 mm 3 mps 738 mmHg 85%
    20:00 +12°C° 0.4 mm 3 mps 738 mmHg 90%
    21:00 +12°C° 0.3 mm 3 mps 738 mmHg 90%
    22:00 +11°C° 0.3 mm 3 mps 738 mmHg 91%
    23:00 +10°C° 0.3 mm 3 mps 738 mmHg 91%

    Tomorrow, 23 September, Sunday

    Time Temperature Precipitation Wind Pressure Humidity
    00:00 +10°C° 0.6 mm 3 mps 738 mmHg 92%
    01:00 +10°C° 0.6 mm 3 mps 738 mmHg 93%
    02:00 +10°C° 0.6 mm 3 mps 738 mmHg 93%
    03:00 +10°C° 0.7 mm 2 mps 738 mmHg 94%
    04:00 +10°C° 0.7 mm 2 mps 738 mmHg 94%
    05:00 +10°C° 0.7 mm 2 mps 738 mmHg 94%
    06:00 +10°C° 0.1 mm 2 mps 738 mmHg 93%
    07:00 +10°C° 0.1 mm 3 mps 737 mmHg 92%
    08:00 +10°C° 0.1 mm 3 mps 737 mmHg 90%
    09:00 +11°C° 0 mm 3 mps 737 mmHg 84%
    10:00 +12°C° 0 mm 4 mps 737 mmHg 78%
    11:00 +13°C° 0 mm 4 mps 737 mmHg 71%
    12:00 +13°C° 0.2 mm 4 mps 737 mmHg 70%
    13:00 +13°C° 0.2 mm 4 mps 737 mmHg 69%
    14:00 +13°C° 0.2 mm 4 mps 737 mmHg 68%
    15:00 +12°C° 0.1 mm 4 mps 737 mmHg 71%
    16:00 +11°C° 0.1 mm 3 mps 737 mmHg 74%
    17:00 +11°C° 0.1 mm 3 mps 736 mmHg 77%
    18:00 +10°C° 0 mm 2 mps 736 mmHg 81%
    19:00 +9°C° 0 mm 2 mps 736 mmHg 84%
    20:00 +8°C° 0 mm 2 mps 737 mmHg 88%
    21:00 +8°C° 0 mm 3 mps 736 mmHg 89%
    22:00 +8°C° 0 mm 3 mps 736 mmHg 90%
    23:00 +7°C° 0 mm 3 mps 736 mmHg 92%

    Day after tomorrow, 24 September, Monday

    Time Temperature Precipitation Wind Pressure Humidity
    00:00 +7°C° 0 mm 3 mps 737 mmHg 93%
    01:00 +7°C° 0 mm 3 mps 737 mmHg 94%
    02:00 +7°C° 0 mm 3 mps 737 mmHg 96%
    03:00 +7°C° 0 mm 3 mps 737 mmHg 95%
    04:00 +7°C° 0 mm 3 mps 737 mmHg 94%
    05:00 +7°C° 0 mm 3 mps 737 mmHg 93%
    06:00 +7°C° 0 mm 3 mps 737 mmHg 91%
    07:00 +8°C° 0 mm 3 mps 737 mmHg 89%
    08:00 +8°C° 0 mm 3 mps 737 mmHg 87%
    09:00 +9°C° 0 mm 2 mps 737 mmHg 82%
    10:00 +10°C° 0 mm 2 mps 736 mmHg 77%
    11:00 +12°C° 0 mm 2 mps 736 mmHg 71%
    12:00 +13°C° 0.1 mm 1 mps 736 mmHg 70%
    13:00 +13°C° 0.1 mm 1 mps 736 mmHg 68%
    14:00 +13°C° 0.1 mm 1 mps 735 mmHg 66%
    15:00 +12°C° 0.4 mm 1 mps 735 mmHg 73%
    16:00 +10°C° 0.4 mm 2 mps 734 mmHg 80%
    17:00 +9°C° 0.4 mm 2 mps 734 mmHg 87%
    18:00 +9°C° 0.7 mm 2 mps 734 mmHg 89%
    19:00 +8°C° 0.7 mm 3 mps 733 mmHg 92%
    20:00 +8°C° 0.7 mm 3 mps 733 mmHg 94%
    21:00 +7°C° 1.2 mm 4 mps 732 mmHg 93%
    22:00 +7°C° 1.2 mm 4 mps 731 mmHg 93%
    23:00 +6°C° 1.2 mm 5 mps 731 mmHg 93%

    25 September, Tuesday

    Time Temperature Precipitation Wind Pressure Humidity
    00:00 +5°C° 1.5 mm 6 mps 731 mmHg 92%
    01:00 +5°C° 1.5 mm 6 mps 730 mmHg 91%
    02:00 +5°C° 1.5 mm 7 mps 730 mmHg 91%
    03:00 +5°C° 1.1 mm 7 mps 730 mmHg 90%
    04:00 +5°C° 1.1 mm 7 mps 730 mmHg 89%
    05:00 +5°C° 1.1 mm 7 mps 730 mmHg 88%
    06:00 +4°C° 0.6 mm 7 mps 731 mmHg 87%
    07:00 +4°C° 0.6 mm 7 mps 732 mmHg 86%
    08:00 +4°C° 0.6 mm 7 mps 732 mmHg 85%
    09:00 +4°C° 0.2 mm 7 mps 733 mmHg 82%
    10:00 +5°C° 0.2 mm 7 mps 734 mmHg 78%
    11:00 +5°C° 0.2 mm 7 mps 735 mmHg 75%
    12:00 +6°C° 0 mm 7 mps 736 mmHg 72%
    13:00 +6°C° 0 mm 7 mps 736 mmHg 69%
    14:00 +8°C° 0 mm 7 mps 737 mmHg 66%
    15:00 +6°C° 0 mm 7 mps 738 mmHg 67%
    16:00 +7°C° 0 mm 6 mps 739 mmHg 69%
    17:00 +5°C° 0 mm 6 mps 740 mmHg 71%
    18:00 +4°C° 0 mm 6 mps 741 mmHg 70%
    19:00 +5°C° 0 mm 5 mps 741 mmHg 70%
    20:00 +3°C° 0 mm 5 mps 742 mmHg 70%
    21:00 +3°C° 0 mm 4 mps 743 mmHg 69%
    22:00 +3°C° 0 mm 4 mps 743 mmHg 69%
    23:00 +1°C° 0 mm 4 mps 743 mmHg 68%

    26 September, Wednesday

    Time Temperature Precipitation Wind Pressure Humidity
    00:00 +1°C° 0 mm 4 mps 744 mmHg 71%
    01:00 +1°C° 0 mm 4 mps 744 mmHg 75%
    02:00 +1°C° 0 mm 4 mps 744 mmHg 79%
    03:00 +1°C° 0 mm 4 mps 744 mmHg 81%
    04:00 +3°C° 0 mm 4 mps 744 mmHg 83%
    05:00 +4°C° 0 mm 4 mps 743 mmHg 85%
    06:00 +3°C° 0.2 mm 5 mps 743 mmHg 84%
    07:00 +3°C° 0.2 mm 5 mps 743 mmHg 84%
    08:00 +5°C° 0.2 mm 5 mps 743 mmHg 84%
    09:00 +5°C° 0.2 mm 5 mps 743 mmHg 85%
    10:00 +6°C° 0.2 mm 5 mps 743 mmHg 85%
    11:00 +6°C° 0.2 mm 5 mps 742 mmHg 86%
    12:00 +7°C° 0.5 mm 5 mps 742 mmHg 87%
    13:00 +7°C° 0.5 mm 5 mps 741 mmHg 88%
    14:00 +7°C° 0.5 mm 5 mps 741 mmHg 89%
    15:00 +7°C° 0.4 mm 5 mps 740 mmHg 89%
    16:00 +7°C° 0.4 mm 5 mps 739 mmHg 90%
    17:00 +7°C° 0.4 mm 5 mps 738 mmHg 90%
    18:00 +7°C° 0.9 mm 6 mps 738 mmHg 90%
    19:00 +7°C° 0.9 mm 6 mps 737 mmHg 90%
    20:00 +7°C° 0.9 mm 6 mps 736 mmHg 91%
    21:00 +6°C° 1.4 mm 7 mps 735 mmHg 90%
    22:00 +8°C° 1.4 mm 7 mps 734 mmHg 90%
    23:00 +8°C° 1.4 mm 7 mps 733 mmHg 90%

    27 September, Thursday

    Time Temperature Precipitation Wind Pressure Humidity
    00:00 +8°C° 0.6 mm 7 mps 733 mmHg 90%
    01:00 +8°C° 0.6 mm 7 mps 732 mmHg 89%
    02:00 +9°C° 0.6 mm 7 mps 731 mmHg 89%
    03:00 +9°C° 1.3 mm 7 mps 731 mmHg 90%
    04:00 +9°C° 1.3 mm 7 mps 730 mmHg 90%
    05:00 +9°C° 1.3 mm 7 mps 730 mmHg 90%
    06:00 +9°C° 1.2 mm 6 mps 730 mmHg 90%
    07:00 +9°C° 1.2 mm 5 mps 730 mmHg 89%
    08:00 +10°C° 1.2 mm 4 mps 730 mmHg 88%
    09:00 +10°C° 0.7 mm 4 mps 729 mmHg 87%
    10:00 +10°C° 0.7 mm 4 mps 729 mmHg 85%
    11:00 +9°C° 0.7 mm 5 mps 729 mmHg 83%
    12:00 +9°C° 0.5 mm 5 mps 729 mmHg 80%
    13:00 +9°C° 0.5 mm 5 mps 729 mmHg 77%
    14:00 +9°C° 0.5 mm 6 mps 729 mmHg 75%
    15:00 +9°C° 0.2 mm 5 mps 729 mmHg 76%
    16:00 +8°C° 0.2 mm 5 mps 729 mmHg 78%
    17:00 +7°C° 0.2 mm 4 mps 729 mmHg 79%
    18:00 +7°C° 0 mm 4 mps 729 mmHg 79%
    19:00 +6°C° 0 mm 4 mps 730 mmHg 80%
    20:00 +6°C° 0 mm 4 mps 730 mmHg 80%
    21:00 +6°C° 0 mm 5 mps 730 mmHg 78%
    22:00 +5°C° 0 mm 5 mps 730 mmHg 77%
    23:00 +5°C° 0 mm 5 mps 730 mmHg 76%
    Show more